Regional Weather Roundup
Issued by NWS Jackson, KY

Home | Current Version | Previous Version | Text Only | Print | Product List | Glossary Off
Versions: 1 2 3 4 5 6 7 8 9 10 11 12 13 14 15 16 17 18 19 20 21 22 23 24 25 26 27

000
ASUS43 KJKL 231810
RWRJKL

EAST KENTUCKY HOURLY WEATHER ROUNDUP
NATIONAL WEATHER SERVICE JACKSON KY
200 PM EDT TUE MAY 23 2017

NOTE: "FAIR" INDICATES FEW OR NO CLOUDS BELOW 12,000 FEET WITH
NO SIGNIFICANT WEATHER AND/OR OBSTRUCTIONS TO VISIBILITY.

* THESE REPORTS ARE NOT UNDER NWS QUALITY CONTROL AND MAY NOT
  REPORT WEATHER SUCH AS PRECIPITATION AND FOG.

KYZ079-080-083-085-087-088-110-112-115-119-120-231900
...EASTERN KENTUCKY...

CITY           SKY/WX    TMP DP  RH WIND       PRES   REMARKS
JACKSON        LGT RAIN  66  60  81 CALM      29.78F
6HR MIN TEMP:  56; 6HR MAX TEMP:  69; 6HR PCP: TRACE;

LONDON         LGT RAIN  68  59  73 NW3       29.77F
6HR MIN TEMP:  57; 6HR MAX TEMP:  68; 6HR PCP: TRACE;

SOMERSET*      CLOUDY    64  59  82 CALM      29.77F
MONTICELLO*    CLOUDY    69  62  78 SE5       29.76F
6HR MIN TEMP:  58; 6HR MAX TEMP:  69; 6HR PCP: TRACE;

WILLIAMSBURG*  CLOUDY    66  64  94 CALM      29.76F
MIDDLESBORO*   DRIZZLE   67  62  84 CALM      29.77F
6HR MIN TEMP:  58; 6HR MAX TEMP:  68;

HARLAN APT*    CLOUDY    64  61  88 CALM      29.77F
PIKE CO APT*   CLOUDY    62  62 100 CALM      29.78F
BIG SANDY APT* CLOUDY    65  60  85 CALM      29.78F
6HR MIN TEMP:  56; 6HR MAX TEMP:  65;

MOREHEAD APT*  CLOUDY    70  57  64 E5        29.78F
$$

KYZ035-036-041-042-044-050-067-078-099-231900
...CENTRAL KENTUCKY...

CITY           SKY/WX    TMP DP  RH WIND       PRES   REMARKS
MT STERLING*   CLOUDY    68  57  68 CALM      29.79F
FLEMING/MASON* CLOUDY    68  53  58 CALM      29.78F
DANVILLE*      CLOUDY    68  59  73 CALM      29.76F
LEXINGTON      CLOUDY    71  56  58 SE7       29.76F
6HR MIN TEMP:  58; 6HR MAX TEMP:  72;

FRANKFORT      CLOUDY    72  56  57 E8        29.74F
6HR MIN TEMP:  58; 6HR MAX TEMP:  73;

LOUISVILLE     CLOUDY    75  52  44 VRB7      29.72F
6HR MIN TEMP:  59; 6HR MAX TEMP:  75;

LEBANON*       MOCLDY    72  61  68 NE3       29.74F
GLASGOW*       MOSUNNY   73  58  59 W3        29.73F
BOWLING GREEN  CLOUDY    75  58  55 E5        29.72F
6HR MIN TEMP:  61; 6HR MAX TEMP:  76;

$$

KYZ091>093-OHZ055-061-077-WVZ005-015-034-035-042-231900
...SOUTHERN OHIO/WEST VIRGINIA...

CITY           SKY/WX    TMP DP  RH WIND       PRES   REMARKS
COVINGTON      CLOUDY    73  48  41 SE8       29.75F
COLUMBUS       CLOUDY    73  50  44 E8        29.76F
DAYTON         PTSUNNY   71  48  43 E5        29.77F
WILMINGTON     SUNNY     70  52  52 E7        29.77F
HUNTINGTON     CLOUDY    72  58  61 VRB3      29.76F
CHARLESTON     CLOUDY    69  56  62 E3        29.78F
PINEVILLE*     CLOUDY    66  58  75 MISG      29.85F
BECKLEY        CLOUDY    60  55  83 SE13G22   29.84F
BLUEFIELD      CLOUDY    57  54  89 E9        29.85F
LOGAN CO APT*  CLOUDY    66  61  82 CALM      29.78F
$$

VAZ002-007-008-TNZ017-027-036-066-071-231900
...SOUTHWEST VIRGINIA/EAST TENNESSEE...

CITY           SKY/WX    TMP DP  RH WIND       PRES   REMARKS
WISE*          DRIZZLE   63  63 100 S3        29.82F
JONESVILLE*    CLOUDY    66  61  82 CALM      29.79F
ABINGDON*      DRIZZLE   65  64  94 E7        29.80F
BRISTOL        LGT RAIN  65  64  97 E3        29.77F FOG
MORRISTOWN*    CLOUDY    66  63  88 CALM      29.75F
SEVIERVILLE*   MOCLDY    66  61  82 CALM      29.74F
KNOXVILLE      LGT RAIN  66  63  90 CALM      29.74F VSB 1
LAFOLLETTE*    PTCLDY    64  63  94 CALM      29.78F FOG
OAK RIDGE      LGT RAIN  66  63  90 CALM      29.75F
CROSSVILLE     CLOUDY    65  58  78 CALM      29.76F HAZE
NASHVILLE      PTSUNNY   78  58  49 VRB3      29.72F
$$

...KEY TO REMARKS...
VSB - VISIBILITY IN MILES
WCI - WIND CHILL INDEX
HX  - HEAT INDEX

$$




USA.gov is the U.S. government's official web portal to all federal, state and local government web resources and services.